Location: Aurora Center
(43.5271°N, 98.5894°W)
Time: 02:03:52
(UTC-05:00)

Envisat - Pass Details

Date: 23 June 2024
Orbit: 762 x 764 km, 98.3° (Epoch: 13 July)

Event Time Altitude Azimuth Distance (km) Brightness Sun altitude
Rises 03:43:45 0° 28° (NNE) 3,234 8.0 -17.0°
Reaches altitude 10° 03:46:42 10° 45° (NE) 2,303 6.7 -16.7°
Maximum altitude 03:50:21 20° 92° (E) 1,721 5.2 -16.4°
Drops below altitude 10° 03:53:59 10° 138° (SE) 2,290 5.3 -16.0°
Enters shadow 03:56:17 - 153° (SSE) 3,008 5.8 -15.8°
